Location: Owatonna
(44.0840°N, 93.2260°W)
Time: 06:23:50
(UTC-06:00)

Tiangong 1 - Visible Passes

Search period start: 26 January 2015 00:00
Search period end: 05 February 2015 00:00
Orbit: 356 x 374 km, 42.8° (Epoch: 26 January)

Date Brightness Start Highest point End Pass type
(mag) Time Alt. Az. Time Alt. Az. Time Alt. Az.
01 Feb 3.3 18:42:58 10° S 18:44:22 13° SSE 18:44:30 13° SE visible
02 Feb 2.7 19:11:26 10° SW 19:13:24 25° S 19:13:24 25° S visible
03 Feb 3.1 18:06:01 10° SSW 18:08:02 17° SSE 18:10:06 10° ESE visible
03 Feb 3.4 19:40:57 10° WSW 19:42:10 21° WSW 19:42:10 21° WSW visible
04 Feb 2.0 18:34:53 10° SW 18:37:42 34° SSE 18:39:02 23° ESE visible
04 Feb 4.6 20:10:45 10° W 20:10:49 11° W 20:10:49 11° W visible
